When you browse on this site, cookies collect data to enhance your experience and personalize the content and advertising you see.
Visit our Privacy Policy to learn more. By continuing to use the site, you agree to this use of cookies and data.
  • In Schweiz
  • Länderverzeichnis
  • Für 7 Tage
  • Wassertemperatur
  • Wetterkarte
  • Widgets
  • user-avatar
    Anmelden

    Stündliche Wetter Sidorovskie

    Heute, 23 August, Freitag

    Zeit Temperatur Niederschläge Wind Luftdruck Luftfeuchtigkeit
    00:00 +12°C° 0 mm 1 m/S 766 mmHg 89%
    01:00 +12°C° 0 mm 1 m/S 766 mmHg 90%
    02:00 +12°C° 0 mm 1 m/S 766 mmHg 92%
    03:00 +11°C° 0 mm 1 m/S 766 mmHg 91%
    04:00 +11°C° 0 mm 1 m/S 766 mmHg 91%
    05:00 +11°C° 0 mm 1 m/S 766 mmHg 90%
    06:00 +13°C° 0 mm 2 m/S 766 mmHg 86%
    07:00 +14°C° 0 mm 2 m/S 766 mmHg 82%
    08:00 +16°C° 0 mm 2 m/S 766 mmHg 78%
    09:00 +17°C° 0 mm 2 m/S 766 mmHg 72%
    10:00 +19°C° 0 mm 3 m/S 766 mmHg 66%
    11:00 +21°C° 0 mm 3 m/S 765 mmHg 60%
    12:00 +21°C° 0 mm 4 m/S 765 mmHg 57%
    13:00 +22°C° 0 mm 4 m/S 765 mmHg 54%
    14:00 +23°C° 0 mm 4 m/S 765 mmHg 51%
    15:00 +22°C° 0 mm 4 m/S 764 mmHg 55%
    16:00 +22°C° 0 mm 3 m/S 764 mmHg 59%
    17:00 +22°C° 0 mm 3 m/S 764 mmHg 63%
    18:00 +20°C° 0 mm 3 m/S 763 mmHg 68%
    19:00 +19°C° 0 mm 3 m/S 763 mmHg 73%
    20:00 +17°C° 0 mm 3 m/S 763 mmHg 78%
    21:00 +17°C° 0 mm 3 m/S 763 mmHg 78%
    22:00 +17°C° 0 mm 4 m/S 763 mmHg 79%
    23:00 +17°C° 0 mm 4 m/S 762 mmHg 79%

    Morgen, 24 August, Samstag

    Zeit Temperatur Niederschläge Wind Luftdruck Luftfeuchtigkeit
    00:00 +17°C° 0 mm 4 m/S 762 mmHg 79%
    01:00 +15°C° 0 mm 4 m/S 762 mmHg 80%
    02:00 +15°C° 0 mm 4 m/S 762 mmHg 80%
    03:00 +15°C° 0 mm 4 m/S 762 mmHg 78%
    04:00 +17°C° 0 mm 4 m/S 762 mmHg 76%
    05:00 +17°C° 0 mm 4 m/S 761 mmHg 74%
    06:00 +17°C° 0 mm 4 m/S 761 mmHg 74%
    07:00 +17°C° 0 mm 5 m/S 761 mmHg 74%
    08:00 +19°C° 0 mm 5 m/S 761 mmHg 74%
    09:00 +19°C° 0 mm 4 m/S 761 mmHg 74%
    10:00 +20°C° 0 mm 4 m/S 761 mmHg 74%
    11:00 +21°C° 0 mm 4 m/S 762 mmHg 73%
    12:00 +21°C° 0.2 mm 4 m/S 761 mmHg 70%
    13:00 +22°C° 0.2 mm 4 m/S 761 mmHg 67%
    14:00 +23°C° 0.2 mm 4 m/S 761 mmHg 65%
    15:00 +24°C° 0.1 mm 3 m/S 761 mmHg 64%
    16:00 +24°C° 0.1 mm 3 m/S 762 mmHg 64%
    17:00 +24°C° 0.1 mm 2 m/S 762 mmHg 63%
    18:00 +21°C° 0 mm 2 m/S 762 mmHg 69%
    19:00 +19°C° 0 mm 2 m/S 762 mmHg 74%
    20:00 +17°C° 0 mm 2 m/S 763 mmHg 79%
    21:00 +16°C° 0 mm 2 m/S 763 mmHg 82%
    22:00 +15°C° 0 mm 2 m/S 763 mmHg 84%
    23:00 +14°C° 0 mm 2 m/S 764 mmHg 86%

    übermorgen, 25 August, Sonntag

    Zeit Temperatur Niederschläge Wind Luftdruck Luftfeuchtigkeit
    00:00 +13°C° 0 mm 1 m/S 764 mmHg 88%
    01:00 +13°C° 0 mm 1 m/S 764 mmHg 90%
    02:00 +12°C° 0 mm 1 m/S 764 mmHg 92%
    03:00 +12°C° 0 mm 1 m/S 765 mmHg 93%
    04:00 +11°C° 0 mm 1 m/S 765 mmHg 94%
    05:00 +11°C° 0 mm 1 m/S 765 mmHg 94%
    06:00 +13°C° 0 mm 1 m/S 765 mmHg 89%
    07:00 +14°C° 0 mm 1 m/S 765 mmHg 84%
    08:00 +16°C° 0 mm 1 m/S 765 mmHg 78%
    09:00 +19°C° 0 mm 1 m/S 765 mmHg 72%
    10:00 +20°C° 0 mm 1 m/S 765 mmHg 66%
    11:00 +22°C° 0 mm 1 m/S 766 mmHg 60%
    12:00 +23°C° 0 mm 1 m/S 765 mmHg 57%
    13:00 +21°C° 0 mm 0 m/S 765 mmHg 55%
    14:00 +22°C° 0 mm 0 m/S 765 mmHg 53%
    15:00 +21°C° 0 mm 0 m/S 765 mmHg 55%
    16:00 +23°C° 0 mm 1 m/S 765 mmHg 57%
    17:00 +22°C° 0 mm 1 m/S 764 mmHg 59%
    18:00 +20°C° 0 mm 1 m/S 764 mmHg 67%
    19:00 +16°C° 0 mm 0 m/S 764 mmHg 74%
    20:00 +14°C° 0 mm 0 m/S 765 mmHg 82%
    21:00 +14°C° 0 mm 0 m/S 765 mmHg 84%
    22:00 +13°C° 0 mm 0 m/S 765 mmHg 85%
    23:00 +14°C° 0 mm 1 m/S 765 mmHg 87%

    26 August, Montag

    Zeit Temperatur Niederschläge Wind Luftdruck Luftfeuchtigkeit
    00:00 +13°C° 0 mm 1 m/S 765 mmHg 88%
    01:00 +13°C° 0 mm 1 m/S 765 mmHg 89%
    02:00 +12°C° 0 mm 1 m/S 765 mmHg 90%
    03:00 +12°C° 0 mm 1 m/S 765 mmHg 91%
    04:00 +12°C° 0 mm 1 m/S 765 mmHg 92%
    05:00 +12°C° 0 mm 1 m/S 765 mmHg 92%
    06:00 +13°C° 0 mm 1 m/S 765 mmHg 85%
    07:00 +15°C° 0 mm 1 m/S 764 mmHg 79%
    08:00 +18°C° 0 mm 1 m/S 764 mmHg 72%
    09:00 +20°C° 0 mm 1 m/S 764 mmHg 66%
    10:00 +22°C° 0 mm 1 m/S 764 mmHg 60%
    11:00 +24°C° 0 mm 1 m/S 764 mmHg 53%
    12:00 +24°C° 0 mm 2 m/S 764 mmHg 51%
    13:00 +25°C° 0 mm 2 m/S 763 mmHg 50%
    14:00 +25°C° 0 mm 2 m/S 763 mmHg 48%
    15:00 +25°C° 0 mm 2 m/S 763 mmHg 52%
    16:00 +25°C° 0 mm 2 m/S 762 mmHg 57%
    17:00 +25°C° 0 mm 1 m/S 762 mmHg 61%
    18:00 +23°C° 0 mm 1 m/S 762 mmHg 68%
    19:00 +21°C° 0 mm 1 m/S 762 mmHg 74%
    20:00 +19°C° 0 mm 1 m/S 762 mmHg 80%
    21:00 +17°C° 0 mm 2 m/S 762 mmHg 82%
    22:00 +17°C° 0 mm 2 m/S 762 mmHg 85%
    23:00 +17°C° 0 mm 2 m/S 762 mmHg 87%

    27 August, Dienstag

    Zeit Temperatur Niederschläge Wind Luftdruck Luftfeuchtigkeit
    00:00 +16°C° 0 mm 2 m/S 762 mmHg 88%
    01:00 +16°C° 0 mm 1 m/S 762 mmHg 89%
    02:00 +16°C° 0 mm 1 m/S 762 mmHg 90%
    03:00 +15°C° 0 mm 1 m/S 762 mmHg 91%
    04:00 +15°C° 0 mm 1 m/S 762 mmHg 91%
    05:00 +15°C° 0 mm 1 m/S 762 mmHg 92%
    06:00 +16°C° 0 mm 1 m/S 762 mmHg 87%
    07:00 +19°C° 0 mm 1 m/S 762 mmHg 83%
    08:00 +20°C° 0 mm 1 m/S 762 mmHg 78%
    09:00 +22°C° 0 mm 1 m/S 762 mmHg 73%
    10:00 +23°C° 0 mm 2 m/S 762 mmHg 68%
    11:00 +25°C° 0 mm 2 m/S 762 mmHg 62%
    12:00 +25°C° 0 mm 2 m/S 762 mmHg 59%
    13:00 +26°C° 0 mm 2 m/S 762 mmHg 57%
    14:00 +26°C° 0 mm 2 m/S 762 mmHg 54%
    15:00 +26°C° 0 mm 2 m/S 762 mmHg 58%
    16:00 +25°C° 0 mm 2 m/S 762 mmHg 61%
    17:00 +25°C° 0 mm 2 m/S 762 mmHg 65%
    18:00 +23°C° 0 mm 1 m/S 762 mmHg 70%
    19:00 +21°C° 0 mm 1 m/S 762 mmHg 76%
    20:00 +19°C° 0 mm 1 m/S 762 mmHg 81%
    21:00 +18°C° 0 mm 1 m/S 762 mmHg 83%
    22:00 +16°C° 0 mm 0 m/S 762 mmHg 84%
    23:00 +15°C° 0 mm 0 m/S 763 mmHg 86%

    28 August, Mittwoch

    Zeit Temperatur Niederschläge Wind Luftdruck Luftfeuchtigkeit
    00:00 +15°C° 0 mm 0 m/S 763 mmHg 87%
    01:00 +14°C° 0 mm 0 m/S 763 mmHg 89%
    02:00 +14°C° 0 mm 0 m/S 763 mmHg 90%
    03:00 +15°C° 0 mm 1 m/S 763 mmHg 92%
    04:00 +15°C° 0 mm 1 m/S 763 mmHg 93%
    05:00 +14°C° 0 mm 1 m/S 763 mmHg 94%
    06:00 +16°C° 0 mm 1 m/S 763 mmHg 89%
    07:00 +18°C° 0 mm 1 m/S 763 mmHg 85%
    08:00 +19°C° 0 mm 2 m/S 763 mmHg 80%
    09:00 +20°C° 0 mm 2 m/S 763 mmHg 75%
    10:00 +23°C° 0 mm 2 m/S 763 mmHg 70%
    11:00 +25°C° 0 mm 2 m/S 763 mmHg 64%
    12:00 +25°C° 0 mm 2 m/S 762 mmHg 62%
    13:00 +26°C° 0 mm 2 m/S 762 mmHg 61%
    14:00 +26°C° 0 mm 2 m/S 762 mmHg 59%
    15:00 +26°C° 0 mm 2 m/S 762 mmHg 62%
    16:00 +26°C° 0 mm 2 m/S 762 mmHg 65%
    17:00 +25°C° 0 mm 2 m/S 761 mmHg 68%
    18:00 +23°C° 0 mm 2 m/S 761 mmHg 74%
    19:00 +21°C° 0 mm 3 m/S 761 mmHg 79%
    20:00 +19°C° 0 mm 3 m/S 761 mmHg 84%
    21:00 +18°C° 0 mm 3 m/S 762 mmHg 84%
    22:00 +18°C° 0 mm 3 m/S 762 mmHg 85%
    23:00 +17°C° 0 mm 3 m/S 762 mmHg 85%
    Mehr zeigen